• Processing (Info)

  • MPEC 2023-Q48 : 2023 QF1

    The following Minor Planet Electronic Circular may be linked-to from your own Web pages, but must not otherwise be redistributed electronically.

    A form allowing access to any MPEC is at the bottom of this page.


    Read MPEC 2023-Q47 Read MPEC 2023-Q49


    M.P.E.C. 2023-Q48                               Issued 2023 August 21, 10:37 UT
    
         The Minor Planet Electronic Circulars contain information on unusual
             minor planets, routine data on comets and natural satellites,
             and occasional editorial announcements.  They are published
        on behalf of Division F of the International Astronomical Union by the
              Minor Planet Center, Smithsonian Astrophysical Observatory,
                              Cambridge, MA 02138, U.S.A.
    			  
                 Prepared using the Tamkin Foundation Computer Network
    
                                  MPC@CFA.HARVARD.EDU
                URL https://www.minorplanetcenter.net/    ISSN 1523-6714
    
                                    2023 QF1                                 
    
    
    Observations:
         K23Q01F* C2023 08 18.52490023 46 42.198-14 39 39.83         21.19wXEQ048F51
         K23Q01F  C2023 08 18.53768123 46 46.350-14 40 12.31         21.18wXEQ048F51
         K23Q01F  C2023 08 18.54917623 46 50.060-14 40 41.47         20.67wXEQ048F51
         K23Q01F  C2023 08 18.61011523 47 09.849-14 43 14.24         20.41GVEQ048F51
         K23Q01F  C2023 08 18.61092823 47 10.105-14 43 16.17         20.38GVEQ048F51
         K23Q01F 1C2023 08 19.03820 23 49 40.30 -15 01 33.5          21.7 VXEQ048033
         K23Q01F 1C2023 08 19.03964 23 49 40.79 -15 01 37.2          21.2 VXEQ048033
         K23Q01F 1C2023 08 19.04109 23 49 41.24 -15 01 40.7          21.5 VXEQ048033
         K23Q01F 1C2023 08 19.04269 23 49 41.80 -15 01 44.3          21.5 VXEQ048033
         K23Q01F IC2023 08 19.04900723 49 43.70 -15 01 56.5          20.7 GVEQ048L01
         K23Q01F IC2023 08 19.05153223 49 44.53 -15 02 03.4          20.7 GVEQ048L01
         K23Q01F KC2023 08 19.05405723 49 45.38 -15 02 10.5          21.0 GVEQ048L01
         K23Q01F KC2023 08 19.05662023 49 46.18 -15 02 16.5          20.8 GVEQ048L01
         K23Q01F KC2023 08 19.06002223 49 47.27 -15 02 24.9          20.7 GVEQ048L01
         K23Q01F 1C2023 08 21.04804 00 00 43.14 -16 21 09.1          20.8 VXEQ048033
         K23Q01F 1C2023 08 21.05000 00 00 43.74 -16 21 14.3          22.2 VXEQ048033
         K23Q01F 1C2023 08 21.05197 00 00 44.28 -16 21 18.0          21.0 VXEQ048033
    
    Observer details:
    033 Karl Schwarzschild Observatory, Tautenburg.  Observers S. Melnikov, C.
        Hoegner, F. Ludwig, M. Hartmann, B. Stecklum.  Measurer B. Stecklum.
        1.34-m f/3 Schmidt + CCD.
    F51 Pan-STARRS 1, Haleakala.  Observers J. Bulger, T. Lowe, P. Minguez, A.
        Schultz, I. Smith, K. Chambers.  Measurers K. Chambers, T. de Boer, J.
        Bulger, J. Fairlamb, H. Gao, M. Huber, C.-C. Lin, T. Lowe, E. Magnier, P.
        Minguez, Y. Ramanjooloo, A. Schultz, I. Smith, R. Wainscoat, R. Weryk, S.
        Chastel.  1.8-m Ritchey-Chretien + CCD.
    L01 Visnjan Observatory, Tican.  Observer K. Korlevic.  1.0-m f/2.9 reflector
        + CCD.
    
    Orbital elements:
    2023 QF1                                                 Earth MOID = 0.1151 AU
    Epoch 2023 Sept. 13.0 TT = JDT 2460200.5                Veres                   
    M   8.88024              (2000.0)            P               Q                  
    n   0.25535117     Peri.  179.36613     +0.75049925     +0.65211358             
    a   2.4606177      Node   139.25901     -0.60705831     +0.74438565             
    e   0.5413102      Incl.    9.45687     -0.26121081     +0.14365891             
    P   3.86           H   23.98          G   0.15           U   9                  
    Residuals in seconds of arc
    230818 F51  0.1-  0.0     230819 033  0.2+  0.1-    230819 L01  0.0   0.1-
    230818 F51  0.1+  0.0     230819 033  0.2-  0.0     230819 L01  0.2-  0.0
    230818 F51  0.0   0.1-    230819 033  0.4+  0.4+    230821 033  0.1+  0.2+
    230818 F51  0.0   0.2-    230819 L01  0.3-  1.0+    230821 033  0.3+  0.6-
    230818 F51  0.1-  0.1-    230819 L01  0.1-  0.4+    230821 033  0.4-  0.2+
    230819 033  0.1-  0.0     230819 L01  0.4+  0.4-
    
    Ephemeris:
    2023 QF1                 a,e,i = 2.46, 0.54, 9                   q = 1.1287
    Date    TT    R. A. (2000) Decl.     Delta      r    Elong.  Phase     V
    2023 07 22    20 39 42.0 +06 49 51   0.1492  1.1492   151.3    25.1    21.3
    ...
    2023 08 06    22 20 52.7 -04 00 25   0.1239  1.1293   156.7    20.8    20.7
    ...
    2023 08 14    23 18 18.1 -11 09 06   0.1286  1.1301   153.9    23.2    20.9
    ...
    2023 08 20    23 55 03.6 -15 39 36   0.1397  1.1359   150.7    25.9    21.2
    2023 08 21    00 00 27.5 -16 18 22   0.1421  1.1373   150.2    26.2    21.2
    2023 08 22    00 05 38.3 -16 55 15   0.1446  1.1388   149.7    26.6    21.3
    ...
    2023 08 28    00 32 09.9 -19 58 47   0.1622  1.1505   147.6    28.1    21.6
    ...
    2023 09 05    00 56 27.5 -22 37 41   0.1908  1.1723   146.5    28.3    22.0
    ...
    2023 09 20    01 17 07.6 -24 32 41   0.2572  1.2307   148.2    25.5    22.6
    
    M. P. C. Staff               (C) Copyright 2023 MPC           M.P.E.C. 2023-Q48
    


    Read MPEC 2023-Q47 Read MPEC 2023-Q49


    MPEC number:

    Enter an MPEC number in one of the following forms:

    • 1997-B01 (the full form)
    • J97B01 (the packed version of the full form)
    • B01 (the abbreviated form)